Theta_e
312 314 315 318 322 322 325 325 325 326 326 324 322 323 329 334 339 342 339 337 335 334 322 318 322 329 334 335 336 336 336 334 334 334 331 325 321 325 326 323 325 330 330 330 330 333 324 324 324
312 315 317 319 320 323 325 325 325 326 323 321 322 324 328 333 334 339 340 336 335 329 321 317 321 330 333 335 336 336 336 335 335 334 331 325 321 325 330 325 326 327 327 327 324 326 323 324 323
312 315 317 319 321 321 323 323 325 324 321 321 322 322 328 338 340 340 339 332 334 328 321 317 320 329 332 333 334 336 335 335 334 334 331 325 321 322 326 325 325 324 323 324 322 322 323 323 322
315 317 316 318 320 321 320 322 323 323 321 320 321 323 326 338 342 340 337 336 336 330 324 317 317 323 330 332 332 333 334 334 333 333 330 323 321 320 322 321 320 319 320 321 321 322 322 322 321
316 317 318 318 318 320 320 319 321 322 321 320 320 323 324 337 331 339 338 339 335 330 326 319 317 318 320 324 327 328 330 330 327 329 328 322 321 319 318 317 317 318 319 320 321 321 321 321 318
317 317 318 318 318 318 319 318 318 320 320 319 319 321 325 337 342 340 340 340 338 333 323 320 321 321 320 318 318 320 324 322 323 326 322 322 321 319 317 316 316 317 318 319 320 320 320 320 317
317 318 317 318 317 317 318 317 318 318 319 319 319 320 326 340 330 340 341 340 339 334 323 322 323 323 322 319 317 318 319 321 322 321 321 322 321 319 317 315 316 317 318 319 320 320 321 320 318
316 318 317 318 317 316 316 316 317 317 318 318 318 321 329 335 329 342 342 342 340 335 326 323 324 324 324 321 317 318 319 320 320 321 322 321 320 319 317 315 316 317 317 318 320 320 323 322 321
314 317 318 317 317 317 316 317 317 317 318 318 319 322 333 325 332 342 343 342 341 336 327 325 325 325 325 323 319 318 319 319 321 323 323 321 320 318 316 315 316 317 317 318 320 320 325 326 324
316 319 319 317 316 317 316 315 315 316 318 318 318 320 330 334 340 342 343 342 341 340 335 327 325 325 326 327 321 318 320 320 322 324 323 322 328 319 316 315 316 317 317 317 319 320 325 329 331
317 317 317 315 315 314 316 316 315 316 317 317 318 318 318 330 336 342 341 340 339 340 339 338 329 326 326 333 323 326 328 330 325 325 324 334 331 324 322 316 316 317 318 317 318 319 322 328 335
314 316 314 315 312 313 315 315 316 315 316 316 317 317 317 325 329 334 342 339 338 339 340 340 337 330 328 334 327 333 332 333 334 333 324 335 325 321 326 328 322 320 319 323 318 320 319 328 328
309 311 310 309 308 310 312 314 315 315 315 315 316 316 317 317 317 322 333 340 338 338 340 340 340 336 330 331 334 335 334 333 333 333 322 332 330 322 326 329 329 330 328 328 329 330 323 320 320
307 306 306 306 306 308 308 310 312 313 316 315 315 315 315 315 315 316 323 337 338 338 339 341 340 337 333 331 331 334 335 334 331 329 321 318 325 326 328 326 324 328 330 329 329 330 330 325 326
306 307 307 308 308 310 313 313 312 310 311 312 313 315 316 316 315 315 317 329 339 338 338 341 341 339 337 335 334 332 336 334 333 331 319 317 318 322 322 328 322 322 326 327 328 328 327 329 329
307 307 308 308 307 307 310 313 315 314 315 316 316 316 316 317 317 316 317 326 336 339 338 340 340 340 338 337 338 338 337 332 333 332 325 318 317 318 318 327 321 319 317 320 327 326 328 327 327
308 308 308 308 307 307 307 308 309 314 312 313 316 317 317 316 317 318 316 322 329 337 339 338 338 337 335 334 339 339 339 335 336 335 333 322 319 317 317 321 322 317 318 318 322 326 326 327 326
308 309 308 308 309 309 308 308 308 307 307 310 313 316 318 319 318 318 317 317 323 328 337 339 338 331 335 337 338 340 339 339 338 338 336 328 321 320 318 320 322 318 320 322 323 323 326 323 327
309 309 310 310 310 309 309 308 308 307 307 307 311 315 317 319 319 318 318 317 320 328 333 338 338 338 338 339 340 340 339 339 339 338 337 333 325 322 320 319 319 318 319 318 318 318 319 328 321
309 309 310 310 310 310 310 309 308 308 309 307 310 314 317 318 319 320 319 318 318 327 333 336 338 338 336 337 337 337 337 335 337 336 337 328 326 324 323 320 320 320 321 319 320 318 321 322 328
310 310 310 309 309 310 309 309 310 311 312 313 312 315 315 316 319 320 319 319 319 322 330 337 338 337 334 330 334 336 336 335 336 335 334 332 329 329 324 322 321 325 319 324 318 318 318 327 327
311 309 309 309 309 310 308 309 313 313 314 315 314 313 314 315 318 320 320 319 317 318 324 334 337 339 338 336 331 332 334 334 334 334 331 331 326 324 324 323 322 322 323 320 324 320 320 320 328
310 310 310 310 309 308 308 311 314 312 310 311 310 310 312 313 316 319 321 322 322 320 317 323 335 337 337 336 336 335 334 334 333 334 333 327 326 322 321 321 321 322 322 324 321 322 320 327 329
309 310 310 309 309 311 309 311 312 311 308 309 307 307 310 312 314 315 317 320 324 327 325 316 326 334 336 336 335 336 337 336 335 333 331 331 333 333 325 323 323 323 324 322 322 322 321 321 326
309 312 312 310 311 309 308 314 310 308 307 309 307 307 306 307 308 309 310 312 314 317 323 329 326 324 335 337 336 336 337 337 336 336 335 335 334 333 332 329 326 324 322 322 323 324 323 323 323
310 311 314 312 311 310 311 313 311 308 307 307 308 308 307 307 307 306 306 306 306 308 315 325 325 326 328 334 338 337 337 337 336 336 336 336 337 337 336 335 336 336 334 328 325 324 324 326 325
306 308 308 311 312 314 313 311 310 307 307 305 306 308 307 307 307 308 307 307 306 304 305 308 316 326 330 328 333 336 336 336 337 337 338 337 338 338 339 337 336 338 338 336 331 329 326 328 330
304 305 311 312 314 313 312 310 310 308 307 306 305 307 307 308 307 306 306 306 307 306 305 304 304 305 308 315 324 330 333 335 336 336 336 336 338 339 338 337 337 338 338 337 335 334 334 335 337
305 305 306 308 310 313 315 310 308 308 308 307 305 304 306 306 307 307 305 305 304 305 305 305 306 305 304 304 306 310 314 319 324 333 335 336 337 337 338 339 338 339 339 339 338 337 338 338 332
303 304 305 310 308 310 311 310 308 308 308 307 307 305 304 305 305 305 305 305 304 302 303 303 304 305 305 304 304 304 304 304 305 307 313 322 331 334 337 339 339 339 338 339 339 338 335 331 331
Wind_Speed
4 4 3 3 6 6 13 8 4 7 5 1 6 5 7 10 4 4 5 11 23 27 28 29 29 29 29 29 30 28 26 24 20 20 19 18 18 19 19 20 19 17 15 14 15 16 17 17 18
2 2 3 4 7 11 11 6 12 6 2 7 6 5 5 4 4 2 9 17 24 28 30 30 30 30 30 31 31 30 27 25 21 20 20 19 19 19 18 19 19 16 14 14 14 16 17 17 17
1 1 6 4 8 13 11 8 8 4 2 3 6 5 4 2 1 3 6 22 28 29 30 30 30 30 30 30 30 30 28 25 22 21 20 19 19 19 19 18 17 15 14 14 15 16 16 16 16
2 4 4 8 13 9 8 2 5 4 2 1 5 11 2 1 1 1 11 26 30 30 30 30 30 30 30 29 28 29 27 25 23 22 20 19 19 20 19 17 16 15 15 15 16 16 16 16 15
3 4 7 10 15 10 6 8 4 6 6 6 8 5 9 3 6 6 16 26 31 32 30 31 30 28 29 29 28 27 27 25 23 22 21 20 20 19 18 16 16 16 16 16 16 16 16 15 15
7 4 9 13 15 10 9 11 13 16 15 13 12 11 4 4 3 6 19 24 27 31 33 32 30 28 27 27 26 27 27 25 23 23 21 20 19 18 17 16 16 16 16 16 16 16 16 16 16
11 7 14 14 10 10 10 6 11 14 17 16 14 9 2 4 10 5 18 23 28 30 35 34 31 28 26 25 25 26 26 26 25 24 22 20 19 17 16 15 16 16 16 16 16 16 17 17 17
8 5 13 9 12 13 4 8 7 12 15 10 10 6 2 8 9 7 17 23 27 32 36 37 35 31 28 26 24 26 26 26 25 23 22 20 19 17 16 15 16 16 16 17 17 16 16 16 16
6 7 10 14 7 8 4 5 4 8 12 13 10 9 7 10 8 8 17 24 28 33 37 38 37 35 31 29 27 26 26 26 25 24 22 21 20 19 18 17 17 17 17 18 18 17 17 16 16
10 11 8 5 6 10 12 14 13 12 14 13 14 12 7 6 2 10 18 27 31 32 36 39 38 37 34 30 30 29 29 28 27 26 25 24 20 21 19 19 18 18 18 19 18 18 17 17 14
2 7 6 5 6 10 12 13 12 16 17 19 18 16 10 8 5 9 15 23 31 29 29 32 38 38 37 30 34 29 28 27 29 28 28 22 21 21 21 21 22 21 21 21 21 20 20 19 14
7 2 3 7 11 12 14 16 16 21 20 19 15 15 13 9 8 8 13 22 29 31 30 29 33 38 38 29 34 28 27 27 26 28 30 24 24 24 22 19 22 22 23 21 23 21 21 20 20
6 6 7 13 18 18 19 21 21 37 22 23 26 25 23 21 18 14 12 19 28 32 31 31 31 36 39 36 31 28 27 28 27 28 31 27 25 26 24 21 20 20 20 20 20 19 22 22 22
6 11 14 12 15 17 21 27 25 35 9 10 15 21 25 23 20 19 17 18 27 31 34 32 33 36 38 39 35 32 29 28 29 29 32 34 28 26 25 24 24 21 19 19 19 19 19 20 20
9 12 10 2 10 12 12 21 29 29 30 33 27 27 26 24 21 17 19 20 25 31 32 35 36 36 38 38 36 35 29 29 30 28 34 36 34 29 27 24 25 24 22 21 20 19 20 18 19
6 2 7 3 12 7 8 16 12 5 13 20 21 21 26 31 27 20 17 19 21 27 31 34 35 36 37 37 33 32 29 33 31 30 32 36 35 33 32 25 26 26 26 24 22 21 19 18 18
3 11 15 11 6 14 10 19 16 19 23 24 24 24 21 24 24 23 21 20 20 24 30 33 37 39 42 41 33 32 29 34 30 30 30 36 36 36 33 29 27 29 27 26 23 21 20 18 18
13 15 13 18 15 17 20 23 22 28 32 30 27 26 24 23 25 19 17 21 24 23 26 31 34 42 41 38 37 31 30 30 29 29 29 34 37 37 36 32 30 31 28 26 25 24 21 22 17
10 13 16 18 18 18 21 22 21 26 27 31 30 26 24 23 23 23 18 18 21 24 25 29 32 35 36 35 35 34 34 32 31 31 31 34 37 38 39 36 33 34 31 30 30 28 26 19 22
13 16 17 14 14 19 23 25 23 21 26 28 28 25 21 22 21 21 22 17 15 22 25 28 31 33 38 35 34 34 34 36 35 33 33 39 39 39 40 39 37 35 32 32 31 30 26 24 18
14 14 14 16 20 18 17 19 8 8 18 24 24 10 17 17 15 15 16 18 17 19 25 27 29 34 36 39 35 30 28 30 30 34 36 38 40 38 40 40 39 35 36 32 35 34 32 24 22
11 11 13 14 12 10 11 8 7 15 19 12 12 11 12 13 12 11 10 10 11 14 18 23 26 29 33 37 40 39 35 35 37 35 35 35 40 42 42 42 41 41 38 36 32 33 33 30 23
7 14 13 15 14 11 7 4 6 12 11 19 19 16 17 15 15 14 13 9 5 7 10 18 23 25 26 30 37 39 36 34 27 26 29 37 39 42 43 44 43 43 43 38 38 35 35 28 26
11 10 11 10 6 5 4 10 12 7 8 12 23 25 25 22 22 21 18 17 15 11 4 12 16 21 23 25 29 34 39 35 31 32 37 34 28 30 39 40 41 41 40 42 42 40 39 38 30
13 13 5 4 2 3 4 3 5 9 15 16 19 27 29 31 32 31 31 30 26 23 15 7 2 11 15 20 23 26 28 28 31 27 24 22 25 30 36 39 42 42 44 42 42 41 41 39 36
8 5 6 5 9 8 13 10 5 12 20 27 24 26 27 31 34 37 36 37 39 39 32 21 9 10 7 7 16 20 21 22 21 22 23 23 22 22 21 27 26 27 34 41 45 45 42 39 38
6 8 8 5 10 6 6 1 5 19 18 24 27 30 31 30 33 34 37 39 41 45 46 45 36 24 10 5 11 13 15 16 18 18 19 22 23 23 22 22 23 22 26 30 34 37 41 39 36
5 8 2 2 5 3 2 6 9 14 13 13 18 24 28 31 32 32 34 36 39 41 42 43 44 41 36 30 20 7 8 14 18 20 22 21 21 22 23 23 23 23 26 28 30 30 30 30 29
6 5 3 3 4 4 3 4 4 9 9 7 18 20 25 26 28 30 31 29 35 38 37 36 37 36 36 33 31 29 24 21 13 6 15 24 26 25 24 24 23 24 24 26 28 27 28 28 26
3 6 5 4 4 3 4 4 10 4 4 9 7 15 17 21 24 26 25 29 34 35 33 33 34 31 28 28 27 26 26 24 24 23 18 9 5 12 21 28 30 31 30 26 30 29 30 27 27
Wind_Direction
282 306 307 257 235 239 246 220 314 178 194 223 313 274 309 317 309 4 140 168 162 163 171 172 170 169 172 174 173 175 171 165 160 155 156 154 155 153 150 153 153 151 148 141 138 135 130 129 125
260 300 258 245 246 225 228 218 211 179 78 321 305 243 242 286 239 146 140 169 163 167 170 171 171 170 172 173 174 177 175 171 168 164 163 161 159 157 157 157 158 158 154 149 144 141 137 133 128
211 184 251 241 238 239 251 184 214 164 311 314 312 305 305 75 89 194 215 170 165 169 171 172 172 173 172 175 176 179 178 175 174 171 170 166 162 161 162 161 163 165 160 156 149 144 140 135 129
213 213 227 242 233 234 245 269 299 228 238 271 319 287 206 227 22 238 179 166 166 169 172 172 172 175 177 180 181 182 181 181 179 178 175 171 166 165 167 167 168 166 164 160 154 149 144 137 130
183 234 235 246 248 240 235 254 270 277 299 293 318 286 303 326 258 231 178 170 171 170 173 173 173 176 178 181 184 185 184 185 182 180 181 175 170 168 168 170 171 168 164 163 159 154 148 142 137
203 258 236 237 237 240 252 253 267 272 273 290 297 295 313 357 22 180 172 173 174 171 175 175 176 178 178 180 183 185 186 185 184 183 182 177 174 172 171 172 173 171 168 166 164 161 156 152 146
248 235 252 270 266 259 254 258 254 266 276 270 270 277 312 31 356 192 175 175 175 178 177 175 177 182 180 182 184 185 185 186 185 184 180 179 177 176 175 174 174 174 172 171 169 166 162 160 156
240 254 247 240 260 260 280 256 258 253 262 269 260 260 264 347 338 168 173 178 178 181 181 178 180 182 182 184 187 188 187 188 186 184 182 181 180 179 179 178 176 179 179 177 175 171 168 167 166
206 243 245 240 252 263 302 288 274 283 260 250 247 273 307 326 323 177 177 180 182 184 185 183 183 184 183 185 188 190 191 189 188 187 186 183 185 183 183 185 181 183 185 183 181 179 177 175 176
227 243 286 360 293 300 297 288 297 282 258 248 258 251 323 329 255 195 191 190 189 187 186 187 187 186 185 185 188 190 192 192 191 190 188 189 188 186 185 190 188 188 189 189 189 188 189 186 194
206 264 46 147 15 328 304 291 314 282 261 263 271 267 300 297 283 234 215 205 196 193 190 189 190 190 188 185 188 187 191 192 193 193 193 188 191 191 188 193 192 194 193 195 196 199 199 201 203
268 141 9 318 322 314 302 305 281 271 266 283 279 286 284 286 284 274 236 211 200 199 197 194 194 193 192 190 190 187 189 191 192 196 197 196 194 198 191 194 195 196 200 200 202 206 208 213 215
258 307 306 302 304 294 292 278 282 275 268 275 280 278 272 272 275 273 260 222 208 204 202 200 197 198 196 196 191 191 192 194 195 199 202 200 198 201 198 197 196 200 204 205 207 208 214 220 223
353 313 298 298 291 283 272 270 267 268 260 279 284 272 272 271 269 265 257 232 216 207 205 202 202 202 200 202 201 199 197 200 200 204 206 206 203 208 205 205 206 205 207 209 211 214 218 224 227
310 299 298 78 343 312 308 266 247 271 273 282 274 267 270 267 266 266 255 243 223 215 209 206 203 205 204 205 207 206 205 205 207 208 212 213 211 213 209 209 213 213 212 212 216 220 222 226 230
326 231 341 6 341 322 310 274 324 312 321 300 288 277 267 266 261 260 256 241 231 220 214 208 205 206 207 209 209 209 209 212 213 214 219 219 217 218 217 215 219 219 219 221 221 223 226 229 233
77 329 321 314 275 308 293 299 297 289 300 295 292 288 275 270 264 253 246 239 233 225 218 214 211 208 211 212 210 212 212 217 216 217 220 225 223 222 223 220 223 224 224 224 224 226 227 232 235
327 325 313 302 322 293 289 286 290 287 282 280 284 286 280 271 264 257 249 244 236 231 221 217 215 217 213 211 211 214 215 220 218 221 222 228 228 227 228 225 225 228 226 227 227 228 232 234 238
310 302 299 305 309 305 294 290 289 285 278 270 269 273 282 276 267 257 256 250 236 227 222 217 214 213 210 209 209 212 215 220 222 223 225 229 232 231 232 229 232 232 229 230 236 236 234 238 242
318 306 301 312 320 306 297 293 290 274 269 260 258 268 289 294 282 260 249 248 235 230 225 219 215 212 214 213 215 218 221 225 228 229 229 233 235 233 231 233 233 235 231 231 231 235 234 240 233
335 300 307 318 311 292 285 291 330 321 255 242 243 307 295 295 300 284 267 252 246 237 228 223 219 222 229 225 217 220 221 227 228 231 233 234 233 233 235 235 232 234 236 232 236 237 238 230 235
323 354 311 304 315 300 338 300 3 27 359 33 5 336 318 333 334 323 311 278 259 249 233 230 224 220 228 231 230 223 222 224 227 231 234 235 238 237 237 236 236 235 238 237 235 236 237 235 231
307 315 305 295 293 308 281 249 31 32 354 356 6 4 13 11 12 10 7 353 318 265 252 227 226 223 220 223 229 234 231 231 230 233 235 240 242 244 241 240 239 238 238 240 239 240 241 237 236
326 304 278 248 286 271 266 229 42 12 340 3 17 24 28 34 39 39 35 36 31 21 308 240 217 228 227 227 230 232 241 236 234 236 246 240 239 240 242 239 240 241 241 242 245 245 245 247 242
345 332 315 316 298 316 14 82 37 338 13 7 17 28 39 42 46 47 46 42 39 37 39 41 273 223 223 233 234 238 238 238 238 238 243 242 246 251 251 245 242 244 247 247 246 246 248 247 246
358 352 331 305 349 326 61 2 32 18 25 13 15 24 33 36 40 44 46 45 44 47 54 63 91 122 181 217 237 244 244 241 246 247 241 243 247 244 242 249 255 258 253 252 251 249 248 248 250
347 359 333 265 265 286 101 10 269 4 12 9 5 10 16 26 27 31 35 41 41 47 55 57 66 74 93 166 206 224 226 231 238 245 247 247 245 245 240 238 255 258 253 247 244 242 246 243 244
3 352 301 284 312 341 79 66 13 352 348 354 2 10 13 20 21 23 29 32 37 42 48 55 58 58 60 65 75 102 229 241 244 246 247 244 246 249 249 256 257 254 244 243 239 234 233 232 232
9 26 358 277 353 327 342 53 353 336 345 347 25 15 15 15 11 14 18 21 31 33 36 38 42 47 52 53 59 60 62 63 68 217 236 245 249 248 242 246 248 244 243 239 235 233 229 221 232
27 13 22 326 14 28 303 53 347 7 35 356 20 29 34 24 14 10 8 15 11 24 29 28 31 33 37 42 47 51 56 54 49 52 50 55 163 213 227 232 240 229 228 225 214 210 220 233 238